timestamp,surface_pressure_avg,surface_temp_avg,battery_voltage,lat,long
2020-02-20 00:09:01+00:00,219.9748,-0.06,12.49,47.84626,-54.09684
2020-02-20 00:19:01+00:00,212.2781,-0.06,12.49,47.84626,-54.09684
2020-02-20 00:29:01+00:00,202.7781,-0.07,12.49,47.84626,-54.09684
2020-02-20 00:39:01+00:00,198.2164,-0.06,12.49,47.84626,-54.09684
2020-02-20 00:49:01+00:00,194.6148,-0.05,12.49,47.84626,-54.09684
2020-02-20 00:59:01+00:00,192.3398,-0.06,12.49,47.84626,-54.09684
2020-02-20 01:09:01+00:00,196.2814,-0.05,12.49,47.84626,-54.09684
2020-02-20 01:19:01+00:00,195.6598,-0.04,12.49,47.84626,-54.09684
2020-02-20 01:29:01+00:00,183.0248,-0.06,12.49,47.84626,-54.09684
2020-02-20 01:39:01+00:00,177.6314,-0.1,12.49,47.84626,-54.09684
2020-02-20 01:49:01+00:00,185.5547,-0.07,12.49,47.84626,-54.09684
2020-02-20 01:59:01+00:00,181.3215,-0.08,12.49,47.84626,-54.09684
2020-02-20 02:09:01+00:00,171.8332,-0.1,12.49,47.84626,-54.09684
2020-02-20 02:19:01+00:00,180.0265,-0.1,12.49,47.84626,-54.09684
2020-02-20 02:29:01+00:00,190.2665,-0.1,12.49,47.84626,-54.09684
2020-02-20 02:39:01+00:00,186.7181,-0.1,12.49,47.84626,-54.09684
2020-02-20 02:49:01+00:00,187.1848,-0.1,12.49,47.84626,-54.09684
2020-02-20 02:59:01+00:00,192.4581,-0.1,12.49,47.84626,-54.09684
2020-02-20 03:09:01+00:00,188.8031,-0.1,12.49,47.84626,-54.09684
2020-02-20 03:19:01+00:00,184.4315,-0.1,12.49,47.84626,-54.09684
2020-02-20 03:29:01+00:00,192.5431,-0.1,12.49,47.84626,-54.09684
2020-02-20 03:39:01+00:00,194.4798,-0.1,12.49,47.84626,-54.09684
2020-02-20 03:49:01+00:00,184.4714,-0.1,12.49,47.84626,-54.09684
2020-02-20 03:59:01+00:00,185.9698,-0.1,12.49,47.84626,-54.09684
2020-02-20 04:09:01+00:00,189.9298,-0.1,12.49,47.84626,-54.09684
2020-02-20 04:19:01+00:00,183.5282,-0.1,12.49,47.84626,-54.09684
2020-02-20 04:29:01+00:00,185.5231,-0.1,12.49,47.84626,-54.09684
2020-02-20 04:39:01+00:00,197.9798,-0.1,12.49,47.84626,-54.09684
2020-02-20 04:49:01+00:00,201.1198,-0.1,12.49,47.84626,-54.09684
2020-02-20 04:59:01+00:00,199.9664,-0.1,12.49,47.84626,-54.09684
2020-02-20 05:09:01+00:00,207.8148,-0.1,12.49,47.84626,-54.09684
2020-02-20 05:19:01+00:00,213.7098,-0.1,12.49,47.84626,-54.09684
2020-02-20 05:29:01+00:00,212.5781,-0.11,12.49,47.84626,-54.09684
2020-02-20 05:39:01+00:00,214.4814,-0.12,12.49,47.84626,-54.09684
2020-02-20 05:49:01+00:00,220.7031,-0.11,12.49,47.84626,-54.09684
2020-02-20 05:59:01+00:00,226.9414,-0.1,12.49,47.84626,-54.09684
2020-02-20 06:09:01+00:00,235.3365,-0.1,12.49,47.84626,-54.09684
2020-02-20 06:19:01+00:00,240.8398,-0.1,12.49,47.84626,-54.09684
2020-02-20 06:29:01+00:00,242.1181,-0.1,12.49,47.84626,-54.09684
2020-02-20 06:39:01+00:00,249.1798,-0.1,12.49,47.84626,-54.09684
2020-02-20 06:49:01+00:00,259.543,-0.1,12.49,47.84626,-54.09684
2020-02-20 06:59:01+00:00,266.4681,-0.1,12.49,47.84626,-54.09684
2020-02-20 07:09:01+00:00,269.9247,-0.1,12.49,47.84626,-54.09684
2020-02-20 07:19:01+00:00,275.1964,-0.1,12.49,47.84626,-54.09684
2020-02-20 07:29:01+00:00,281.7848,-0.2,12.49,47.84626,-54.09684
2020-02-20 07:39:01+00:00,287.6547,-0.2,12.49,47.84626,-54.09684
2020-02-20 07:49:01+00:00,295.168,-0.2,12.49,47.84626,-54.09684
2020-02-20 07:59:01+00:00,302.3597,-0.2,12.49,47.84626,-54.09684
2020-02-20 08:09:01+00:00,303.898,-0.2,12.49,47.84626,-54.09684
2020-02-20 08:19:01+00:00,304.8263,-0.2,12.49,47.84626,-54.09684
2020-02-20 08:29:01+00:00,317.278,-0.2,12.49,47.84626,-54.09684
2020-02-20 08:39:01+00:00,330.6847,-0.2,12.49,47.84626,-54.09684
2020-02-20 08:49:01+00:00,335.0029,-0.2,12.49,47.84626,-54.09684
2020-02-20 08:59:01+00:00,340.7079,-0.17,12.49,47.84626,-54.09684
2020-02-20 09:09:01+00:00,354.0413,-0.14,12.49,47.84626,-54.09684
2020-02-20 09:19:01+00:00,354.6763,-0.12,12.41,47.84626,-54.09684
2020-02-20 09:29:01+00:00,348.588,-0.12,12.41,47.84626,-54.09684
2020-02-20 09:39:01+00:00,352.3862,-0.1,12.41,47.84626,-54.09684
2020-02-20 09:49:01+00:00,365.4645,-0.1,12.41,47.84626,-54.09684
2020-02-20 09:59:01+00:00,364.2396,-0.1,12.41,47.84626,-54.09684
2020-02-20 10:09:01+00:00,360.653,-0.11,12.41,47.84626,-54.09684
2020-02-20 10:19:01+00:00,366.8812,-0.1,12.41,47.84626,-54.09684
2020-02-20 10:29:01+00:00,364.7463,-0.1,12.41,47.84626,-54.09684
2020-02-20 10:39:01+00:00,355.1296,-0.1,12.41,47.84626,-54.09684
2020-02-20 10:49:01+00:00,351.358,-0.1,12.41,47.84626,-54.09684
2020-02-20 10:59:01+00:00,346.4296,-0.05,12.41,47.84626,-54.09684
2020-02-20 11:09:01+00:00,338.6279,-0.01,12.41,47.84626,-54.09684
2020-02-20 11:19:01+00:00,330.6246,0.0,12.89,47.84626,-54.09684
2020-02-20 11:29:01+00:00,326.2997,0.0,12.89,47.84626,-54.09684
2020-02-20 11:39:01+00:00,323.0096,0.0,12.89,47.84626,-54.09684
2020-02-20 11:49:01+00:00,317.8029,0.0,12.89,47.84626,-54.09684
2020-02-20 11:59:01+00:00,318.2797,0.0,12.89,47.84626,-54.09684
2020-02-20 12:09:01+00:00,311.6198,0.0,12.89,47.84626,-54.09684
2020-02-20 12:19:01+00:00,300.0764,0.0,14.24,47.84626,-54.09684
2020-02-20 12:29:01+00:00,293.9613,0.0,14.24,47.84626,-54.09684
2020-02-20 12:39:01+00:00,289.0947,-0.0,14.24,47.84626,-54.09684
2020-02-20 12:49:01+00:00,283.4014,-0.03,14.24,47.84626,-54.09684
2020-02-20 12:59:01+00:00,278.1497,-0.03,14.24,47.84626,-54.09684
2020-02-20 13:09:01+00:00,273.4781,-0.1,14.24,47.84626,-54.09684
2020-02-20 13:19:01+00:00,265.4531,-0.1,14.88,47.84626,-54.09684
2020-02-20 13:29:01+00:00,256.5698,-0.1,14.88,47.84626,-54.09684
2020-02-20 13:39:01+00:00,260.1198,-0.08,14.88,47.84626,-54.09684
2020-02-20 13:49:01+00:00,261.6014,-0.04,14.88,47.84626,-54.09684
2020-02-20 13:59:01+00:00,257.213,-0.04,14.88,47.84626,-54.09684
2020-02-20 14:09:01+00:00,254.5681,-0.03,14.88,47.84626,-54.09684
2020-02-20 14:19:01+00:00,254.2397,-0.03,14.8,47.84626,-54.09684
2020-02-20 14:29:01+00:00,250.7315,-0.03,14.8,47.84626,-54.09684
2020-02-20 14:39:01+00:00,248.5948,-0.03,14.8,47.84626,-54.09684
2020-02-20 14:49:01+00:00,249.3147,-0.01,14.8,47.84626,-54.09684
2020-02-20 14:59:01+00:00,246.2814,0.0,14.8,47.84626,-54.09684
2020-02-20 15:09:01+00:00,246.5381,-0.0,14.8,47.84626,-54.09684
2020-02-20 15:19:01+00:00,250.4348,0.0,14.72,47.84626,-54.09684
2020-02-20 15:29:01+00:00,247.7748,0.0,14.72,47.84626,-54.09684
2020-02-20 15:39:01+00:00,241.9897,0.0,14.72,47.84626,-54.09684
2020-02-20 15:49:01+00:00,244.8147,0.0,14.72,47.84626,-54.09684
2020-02-20 15:59:01+00:00,248.0714,0.0,14.72,47.84626,-54.09684
2020-02-20 16:09:01+00:00,242.3464,0.0,14.72,47.84626,-54.09684
2020-02-20 16:19:01+00:00,237.3031,0.0,14.64,47.84626,-54.09684
2020-02-20 16:29:01+00:00,238.1931,0.0,14.64,47.84626,-54.09684
2020-02-20 16:39:01+00:00,233.7281,0.0,14.64,47.84626,-54.09684
2020-02-20 16:49:01+00:00,229.5431,0.0,14.64,47.84626,-54.09684
2020-02-20 16:59:01+00:00,233.6965,0.0,14.64,47.84626,-54.09684
2020-02-20 17:09:01+00:00,237.8781,0.0,14.64,47.84626,-54.09684
2020-02-20 17:19:01+00:00,235.5464,0.0,14.48,47.84626,-54.09684
2020-02-20 17:29:01+00:00,234.6997,0.01,14.48,47.84626,-54.09684
2020-02-20 17:39:01+00:00,236.4898,0.03,14.48,47.84626,-54.09684
2020-02-20 17:49:01+00:00,237.3631,0.07,14.48,47.84626,-54.09684
2020-02-20 17:59:01+00:00,237.2864,0.1,14.48,47.84626,-54.09684
2020-02-20 18:09:01+00:00,240.1231,0.1,14.48,47.84626,-54.09684
2020-02-20 18:19:01+00:00,245.2581,0.1,14.48,47.84626,-54.09684
2020-02-20 18:29:01+00:00,246.7597,0.1,14.48,47.84626,-54.09684
2020-02-20 18:39:01+00:00,248.1348,0.1,14.48,47.84626,-54.09684
2020-02-20 18:49:01+00:00,252.3614,0.1,14.48,47.84626,-54.09684
2020-02-20 18:59:01+00:00,253.6898,0.1,14.48,47.84626,-54.09684
2020-02-20 19:09:01+00:00,254.4081,0.1,14.48,47.84626,-54.09684
2020-02-20 19:19:01+00:00,262.563,0.1,14.32,47.84626,-54.09684
2020-02-20 19:29:01+00:00,268.8181,0.09,14.32,47.84626,-54.09684
2020-02-20 19:39:01+00:00,268.4797,0.07,14.32,47.84626,-54.09684
2020-02-20 19:49:01+00:00,274.5847,0.06,14.32,47.84626,-54.09684
2020-02-20 19:59:01+00:00,286.4214,0.0,14.32,47.84626,-54.09684
2020-02-20 20:09:01+00:00,290.8297,0.0,14.32,47.84626,-54.09684
2020-02-20 20:19:01+00:00,288.9647,-0.03,14.0,47.84626,-54.09684
2020-02-20 20:29:01+00:00,294.828,-0.01,14.0,47.84626,-54.09684
2020-02-20 20:39:01+00:00,302.9813,-0.0,14.0,47.84626,-54.09684
2020-02-20 20:49:01+00:00,301.8447,-0.02,14.0,47.84626,-54.09684
2020-02-20 20:59:01+00:00,302.908,-0.07,14.0,47.84626,-54.09684
2020-02-20 21:09:01+00:00,313.2513,-0.05,14.0,47.84626,-54.09684
2020-02-20 21:19:01+00:00,319.1379,-0.1,13.53,47.84626,-54.09684
2020-02-20 21:29:01+00:00,318.5997,-0.1,13.53,47.84626,-54.09684
2020-02-20 21:39:01+00:00,324.6663,-0.09,13.53,47.84626,-54.09684
2020-02-20 21:49:01+00:00,334.4996,-0.08,13.53,47.84626,-54.09684
2020-02-20 21:59:01+00:00,335.3746,-0.1,13.53,47.84626,-54.09684
2020-02-20 22:09:01+00:00,334.5062,-0.1,13.53,47.84626,-54.09684
2020-02-20 22:19:01+00:00,337.9147,-0.1,13.13,47.84626,-54.09684
2020-02-20 22:29:01+00:00,339.2946,-0.1,13.13,47.84626,-54.09684
2020-02-20 22:39:01+00:00,337.0862,-0.1,13.13,47.84626,-54.09684
2020-02-20 22:49:01+00:00,333.5997,-0.1,13.13,47.84626,-54.09684
2020-02-20 22:59:01+00:00,332.4296,-0.1,13.13,47.84626,-54.09684
2020-02-20 23:09:01+00:00,328.5247,-0.1,13.13,47.84626,-54.09684
2020-02-20 23:19:01+00:00,325.3597,-0.1,12.81,47.84626,-54.09684
2020-02-20 23:29:01+00:00,320.8964,-0.12,12.81,47.84626,-54.09684
2020-02-20 23:39:01+00:00,316.0546,-0.18,12.81,47.84626,-54.09684
2020-02-20 23:49:01+00:00,310.1146,-0.2,12.81,47.84626,-54.09684
2020-02-20 23:59:01+00:00,306.1397,-0.2,12.81,47.84626,-54.09684
